409  
SXUS52 KCHS 202012  
OSOCHS  
 
MARINE OBSERVATIONS  
NATIONAL WEATHER SERVICE CHARLESTON SC  
400 PM EDT FRI APR 20 2018  
   
..DOWNTOWN CHARLESTON AND HARBOR
 
 
 
CITY SKY/WX TMP DP RH WIND PRES REMARKS  
WATERFRONT PRK N/A 62 44 51 E13 30.14F  
   
..LAKE MOULTRIE
 
 
 
CITY SKY/WX TMP DP RH WIND PRES REMARKS  
PINOPOLIS N/A 63 37 39 NW7 30.20F  
   
..LAKE AND SUPPLEMENTAL COASTAL OBSERVATIONS
 
 
 
STATION/POSITION TIME TEMP WIND PRES WAVE SWELL  
AIR SEA DIR/SP/G HT/PER HT/PER/DIR  
(UTC) (F) (DEG/KT/KT) (MB) (FT/S) (FT/S/D)  
FORT PULASKI 1948 60 65 80/ 13/ 16 1025.7F  
SAPELO ISLAND NOT AVBL  
WINYAH BAY NOT AVBL  
LAKE MURRAY 1920 65 200/ 3/ 4 1025.4F  
ACE BASIN NERRS NOT AVBL  
 
   
..C-MAN AND BUOY OBSERVATIONS
 
 
 
STATION/POSITION TIME TEMP WIND PRES WAVE SWELL  
AIR SEA DIR/SP/G HT/PER HT/PER/DIR  
(UTC) (F) (DEG/KT/KT) (MB) (FT/S) (FT/S/D)  
BUOY 41004 2000 58 67 40/ 19/ 23 1025.2  
BUOY 41008 1950 59 65 50/ 23/ 29 1023.7F 7/ 6 2/110/11  
FOLLY BEACH CMAN 2000 58 80/ 14/ 16 1026.2F  
PRITCHARDS ISLAN NOT AVBL  
CAPERS NS BUOY 1908 57 63 90/ 16/ 19 1026.2F  
FRIPP NS BUOY 1908 58 64 70/ 12/ 19 1025.2F  
5E ST. MARYS GA 2000 66 N/A 7/ 6 2/100/11  
 
 
STATION/POSITION TIME TEMP WIND PRES WAVE SWELL  
AIR SEA DIR/SP/G HT/PER HT/PER/DIR  
(UTC) (F) (DEG/KT/KT) (MB) (FT/S) (FT/S/D)  
FRYING PAN BUOY 2000 56 65 70/ 10/ 16 1025.7  
BUOY 41025 2000 51 70 20/ 12/ 16 1025.9  
CAPE LOOKOUT NC 2000 70/ 11/ 12 1025.4F  
BUOY 41002 2000 65 72 30/ 16/ 19 1022.5  
BUOY 41010 1950 76 75 360/ 8/ 10 1019.9F 3/ 8 3/ 40/ 8  
ST AUGUSTINE FL 2000 64 66 360/ 24/ 27 1022.1F  
 

 
 
 
CLICK HERE TO GO TO PREVIOUS BULLETINS.

The Nexlab SC Page
The Nexlab GA Page Main Text Page